Location: Recife
(8.0585°S, 34.8848°W)
Time: 20:30:04
(UTC-03:00)

Altair - Pass Details

Date: 19 April 2026
Orbit: 1501 x 1682 km, 47.2° (Epoch: 17 May)

Event Time Altitude Azimuth Distance (km) Brightness Sun altitude
Rises 23:20:18 0° 263° (W) 4,632 - -86.5°
Reaches altitude 10° 23:27:13 10° 227° (SW) 3,659 - -86.0°
Maximum altitude 23:29:00 11° 216° (SW) 3,615 - -85.7°
Drops below altitude 10° 23:30:47 10° 204° (SSW) 3,670 - -85.4°
Sets 23:37:52 0° 168° (SSE) 4,689 - -84.1°
